テイラー彗星

69P/Taylor (2011)

English version
Home page
Updated on March 7, 2012

---------------------------------------------------------------------

・ プロフィール

・ 写真集

・ 軌道要素

Epoch 2011 July 18.0 TT = JDT 2455760.5
T 2011 July 17.49481 TT                                 MPC
q   2.2727140            (2000.0)            P               Q
n   0.12890187     Peri.  343.42729     +0.00938060     -0.93182909
a   3.8811752      Node   104.88006     +0.95475602     -0.09949553
e   0.4144263      Incl.   22.04680     +0.29724224     +0.34899166
P   7.65
From 372 observations 1998 Mar. 2-2011 Oct. 29, mean residual 0".8.
     Nongravitational parameters Y1 = +0.57, Y2 = -0.0519.

・ 光度変化

        m1 = 6.0 + 5 logΔ + 30 log r

---------------------------------------------------------------------

軌道要素はM.P.E.C. 2011-V31に掲載されたものです。
光度グラフはComet for Windowsで作成したものです。

---------------------------------------------------------------------

Copyright(C) Seiichi Yoshida (comet@aerith.net). All rights reserved.